Other Surface Observations
Issued by NWS

Home | Current Version | Previous Version | Text Only | Print | Product List | Glossary On
Versions: 1 2 3 4 5 6 7 8 9 10 11 12 13 14 15 16 17 18 19 20 21 22 23 24 25 26 27 28 29 30 31 32 33 34 35 36 37 38 39 40 41 42 43 44 45 46 47 48 49 50
692
SXUS52 KTAE 251418
OSOTAE
OSOTAE
North Florida/South Alabama/Southwest Georgia Weather Roundup
National Weather Service Tallahassee Florida
1000 AM EDT SUN SEP 25 2016

Note: "fair" indicates few or no clouds below 12,000 feet with no
significant weather and/or obstructions to visibility.

!FLZ017-115-028-034-025-251500
...North Florida...

CITY           SKY/WX    TMP DP  RH WIND       PRES   REMARKS
TALLAHASSEE    MOSUNNY   83  75  77 CALM      30.04F HX  90
APALACHICOLA   CLOUDY    85  81  88 VRB5      30.03S HX 100
PERRY          DRIZZLE   77  75  95 CALM      30.05F
CROSS CITY     MOSUNNY   82  75  78 CALM      30.05S
JACKSONVILLE   MOSUNNY   82  75  79 N6        30.06S
$$

!FLZ112-006-005-002-011-251500
...Florida Panhandle...

CITY           SKY/WX    TMP DP  RH WIND       PRES   REMARKS
MARIANNA       SUNNY     80  75  84 CALM      30.05R
BONIFAY        FAIR      81  73  76 NE3       30.06S
PANAMA CITY NW SUNNY     82  75  78 NE5       30.03S
TYNDALL AFB    SUNNY     82  77  85 E5        30.04S
TYND DRONE APT FAIR      80  79  96 E5        30.04S
DE FUNIAK SPR  FAIR      81  68  65 NE3       30.05S
EGLIN AFB      MOSUNNY   81  68  63 NE3       30.03S
DESTIN         SUNNY     84  70  62 NE5       30.03S
HURLBURT       SUNNY     80  68  66 N5        30.02S
CRESTVIEW      SUNNY     80  69  69 SE5       30.06R
PENSACOLA      SUNNY     85  71  63 N5        30.04R HX  90
$$

!ALZ063-066-251500
...South Alabama...

CITY           SKY/WX    TMP DP  RH WIND       PRES   REMARKS
DOTHAN         SUNNY     81  73  76 E6        30.09S
OZARK CAIRNS   SUNNY     78  72  80 SE6       30.06R
FT RUCKER HELI SUNNY     81  72  74 CALM      30.05R
RUCKER HELI 3  NOT AVBL
RUCKER HELI 2  FAIR      79  71  76 VRB3      30.05S
FLORALA APT    NOT AVBL
ANDALUSIA      MOSUNNY   85  68  56 CALM      30.05S
TROY           SUNNY     77  71  82 VRB3      30.07S
EUFALA         FAIR      83  71  67 CALM      30.05F
MOBILE         MOSUNNY   82  73  74 NW3       30.06S
$$

!GAZ120>161-251500
...Southwest and South Central Georgia...

CITY           SKY/WX    TMP DP  RH WIND       PRES   REMARKS
THOMASVILLE    FAIR      81  77  89 S3        30.07F
BAINBRIDGE     SUNNY     81  73  78 CALM      30.06S
MOODY AFB      MOSUNNY   82  70  66 SE3       30.05F
VALDOSTA       SUNNY     81  75  82 E3        30.06F
MOULTRIE       SUNNY     79  73  83 CALM      30.08S
BLAKELY        SUNNY     82  72  69 E3        30.07S
ALBANY         SUNNY     81  72  74 VRB3      30.09S
TIFTON         FAIR      80  71  75 CALM      30.08R
FITZGERALD     FAIR      84  77  80 CALM      30.10S HX  93
CORDELE        FAIR      83  74  73 CALM      30.09S
AMERICUS       FAIR      79  68  69 CALM      30.10R
HOMERVILLE     FAIR      82  72  69 CALM      30.07S
$$

!GMZ750-755-770-775-251500
...Coastal and Buoy Obs...

STATION/POSITION TIME  TEMP    WIND        PRES    VSBY  WAVE
                       AIR SEA DIR/SP/G                  HT/PER
                 (UTC) (F)     (DEG/KT/KT) (MB)    (MI)  (FT/S)
KEATON BEACH     1400   82      60/  2/  2 1016.9F
CEDAR KEY        1400   81     100/  5/  6 1017.6R
C TOWER          1400   84      10/  2/  2 1017.4F
APALACHICOLA BUO 1350   85 85   20/  4/  6 1017.1F         0
PANAMA CITY BUOY 1350   83 85              1017.4R         1
MOBILE BUOY      1400   84 85  330/  6/  8 1017.1R
ORANGE BCH AL BU 1350   82 85  330/  8/ 10 1017.3R         1
$$




USA.gov is the U.S. government's official web portal to all federal, state and local government web resources and services.